Location: The Saddle
(36.8333°N, 80.3417°W)
Time: 09:59:39
(UTC-05:00)

S-56A Canister/Altair - Pass Details

Date: 17 December 2023
Orbit: 640 x 2488 km, 38.9° (Epoch: 25 February)

Event Time Altitude Azimuth Distance (km) Brightness Sun altitude
Rises 11:54:36 0° 284° (WNW) 3,608 10.8 29.6°
Reaches altitude 10° 11:57:30 10° 284° (WNW) 2,449 10.0 29.6°
Maximum altitude 12:02:57 83° 198° (SSW) 701 8.0 29.7°
Drops below altitude 10° 12:07:25 10° 110° (ESE) 2,025 10.1 29.8°
Sets 12:09:38 0° 109° (ESE) 2,930 10.8 29.8°
